| time (UTC) | temp C | wind direction | speed KPH | gust KPH | rain 1hr cm | rain 24hr cm | rain mn cm | humidity % | barometer mb |
| 20260504150903 | 15 | 307 | 6.4 | 19.3 | 0.00 | 0.00 | 0.00 | 37 | 996.1 |
| 20260504141116 | 16 | 287 | 8.0 | 19.3 | 0.00 | 0.00 | 0.00 | 41 | 995.5 |
| 20260504081804 | 13 | 270 | 3.2 | 8.0 | 0.00 | 0.00 | 0.00 | 42 | 996.4 |
| 20260504080904 | 13 | 263 | 3.2 | 8.0 | 0.00 | 0.00 | 0.00 | 42 | 996.5 |
| 20260504050005 | 8 | 0 | 0.0 | 0.0 | 0.00 | 0.00 | 0.00 | 64 | 999.8 |
| 20260504045403 | 8 | 0 | 0.0 | 0.0 | 0.00 | 0.00 | 0.00 | 67 | 999.9 |
| 20260504044503 | 8 | 0 | 0.0 | 0.0 | 0.00 | 0.00 | 0.00 | 65 | 1000.0 |
| 20260504043603 | 7 | 0 | 0.0 | 0.0 | 0.00 | 0.00 | 0.00 | 67 | 1000.2 |
| 20260504042704 | 7 | 0 | 0.0 | 0.0 | 0.00 | 0.00 | 0.00 | 70 | 1000.3 |
| 20260504041803 | 7 | 0 | 0.0 | 0.0 | 0.00 | 0.00 | 0.00 | 70 | 1000.3 |
| 20260504040903 | 8 | 0 | 0.0 | 0.0 | 0.00 | 0.00 | 0.00 | 69 | 1000.5 |
| 20260504040004 | 8 | 0 | 0.0 | 0.0 | 0.00 | 0.00 | 0.00 | 65 | 1000.7 |
| 20260504035403 | 8 | 0 | 0.0 | 0.0 | 0.00 | 0.00 | 0.00 | 63 | 1000.8 |
| 20260504034503 | 8 | 0 | 0.0 | 0.0 | 0.00 | 0.00 | 0.00 | 62 | 1000.9 |
| 20260504033603 | 8 | 0 | 0.0 | 0.0 | 0.00 | 0.00 | 0.00 | 62 | 1001.1 |
| 20260504032703 | 9 | 0 | 0.0 | 0.0 | 0.00 | 0.00 | 0.00 | 60 | 1001.3 |
| 20260504031803 | 8 | 0 | 0.0 | 0.0 | 0.00 | 0.00 | 0.00 | 59 | 1001.3 |
| 20260504030903 | 9 | 0 | 0.0 | 0.0 | 0.00 | 0.00 | 0.00 | 64 | 1001.4 |
| 20260504030215 | 10 | 0 | 0.0 | 0.0 | 0.00 | 0.00 | 0.00 | 62 | 1001.5 |
| 20260504025403 | 10 | 0 | 0.0 | 0.0 | 0.00 | 0.00 | 0.00 | 57 | 1001.5 |
| 20260504024504 | 10 | 279 | 0.0 | 0.0 | 0.00 | 0.00 | 0.00 | 53 | 1001.5 |
| 20260504023603 | 11 | 279 | 0.0 | 1.6 | 0.00 | 0.00 | 0.00 | 53 | 1001.6 |
| 20260504022703 | 11 | 0 | 0.0 | 0.0 | 0.00 | 0.00 | 0.00 | 51 | 1001.6 |
| 20260504022016 | 12 | 279 | 0.0 | 0.0 | 0.00 | 0.00 | 0.00 | 49 | 1001.6 |
| 20260504020903 | 12 | 0 | 0.0 | 0.0 | 0.00 | 0.00 | 0.00 | 46 | 1001.6 |
| 20260504020004 | 13 | 0 | 0.0 | 0.0 | 0.00 | 0.00 | 0.00 | 38 | 1001.7 |
| 20260504015403 | 14 | 0 | 0.0 | 0.0 | 0.00 | 0.00 | 0.00 | 38 | 1001.7 |
| 20260504014503 | 15 | 279 | 0.0 | 0.0 | 0.00 | 0.00 | 0.00 | 33 | 1001.8 |
| 20260504013603 | 15 | 279 | 0.0 | 1.6 | 0.00 | 0.00 | 0.00 | 30 | 1001.8 |
| 20260504012703 | 16 | 0 | 0.0 | 0.0 | 0.00 | 0.00 | 0.00 | 30 | 1001.8 |
| 20260504012017 | 16 | 0 | 0.0 | 0.0 | 0.00 | 0.00 | 0.00 | 28 | 1001.8 |
| 20260504010903 | 17 | 0 | 0.0 | 0.0 | 0.00 | 0.00 | 0.00 | 26 | 1001.8 |
| 20260504010003 | 18 | 0 | 0.0 | 0.0 | 0.00 | 0.00 | 0.00 | 25 | 1001.9 |
| 20260504005403 | 18 | 286 | 0.0 | 0.0 | 0.00 | 0.00 | 0.00 | 24 | 1001.8 |
| 20260504004715 | 18 | 292 | 3.2 | 4.8 | 0.00 | 0.00 | 0.00 | 24 | 1001.8 |
| 20260504003603 | 19 | 287 | 3.2 | 6.4 | 0.00 | 0.00 | 0.00 | 22 | 1001.9 |
| 20260504002703 | 19 | 295 | 3.2 | 8.0 | 0.00 | 0.00 | 0.00 | 23 | 1001.9 |
| 20260504001803 | 19 | 294 | 3.2 | 9.7 | 0.00 | 0.00 | 0.00 | 24 | 1002.2 |
| 20260504001115 | 20 | 293 | 3.2 | 8.0 | 0.00 | 0.00 | 0.00 | 23 | 1002.1 |
| 20260504000003 | 20 | 285 | 4.8 | 8.0 | 0.00 | 0.00 | 0.00 | 21 | 1002.0 |
| 20260503235403 | 20 | 286 | 4.8 | 8.0 | 0.00 | 0.00 | 0.00 | 22 | 1002.0 |
| 20260503234503 | 20 | 277 | 4.8 | 11.3 | 0.00 | 0.00 | 0.00 | 22 | 1002.1 |
| 20260503233603 | 20 | 325 | 4.8 | 6.4 | 0.00 | 0.00 | 0.00 | 23 | 1002.2 |
| 20260503232703 | 20 | 325 | 4.8 | 9.7 | 0.00 | 0.00 | 0.00 | 21 | 1002.3 |
| 20260503232013 | 21 | 306 | 3.2 | 8.0 | 0.00 | 0.00 | 0.00 | 23 | 1002.3 |
| 20260503230903 | 21 | 324 | 4.8 | 8.0 | 0.00 | 0.00 | 0.00 | 20 | 1002.4 |
| 20260503230003 | 21 | 312 | 4.8 | 11.3 | 0.00 | 0.00 | 0.00 | 22 | 1002.4 |
| 20260503225403 | 21 | 334 | 4.8 | 11.3 | 0.00 | 0.00 | 0.00 | 21 | 1002.5 |
| 20260503224503 | 21 | 345 | 6.4 | 11.3 | 0.00 | 0.00 | 0.00 | 20 | 1002.5 |
| 20260503223603 | 21 | 356 | 4.8 | 20.9 | 0.00 | 0.00 | 0.00 | 20 | 1002.7 |
| 20260503222703 | 21 | 302 | 6.4 | 14.5 | 0.00 | 0.00 | 0.00 | 21 | 1002.8 |
| 20260503221804 | 21 | 303 | 4.8 | 11.3 | 0.00 | 0.00 | 0.00 | 22 | 1002.7 |
| 20260503220903 | 21 | 316 | 6.4 | 11.3 | 0.00 | 0.00 | 0.00 | 23 | 1002.7 |
| 20260503220004 | 21 | 325 | 8.0 | 17.7 | 0.00 | 0.00 | 0.00 | 22 | 1002.8 |
| 20260503215403 | 21 | 2 | 8.0 | 17.7 | 0.00 | 0.00 | 0.00 | 24 | 1002.6 |
| 20260503214503 | 21 | 321 | 6.4 | 14.5 | 0.00 | 0.00 | 0.00 | 23 | 1002.5 |
| 20260503213603 | 21 | 342 | 8.0 | 14.5 | 0.00 | 0.00 | 0.00 | 25 | 1002.7 |
| 20260503212703 | 21 | 327 | 4.8 | 16.1 | 0.00 | 0.00 | 0.00 | 25 | 1002.8 |
| 20260503212014 | 21 | 341 | 6.4 | 17.7 | 0.00 | 0.00 | 0.00 | 25 | 1002.7 |
| 20260503210903 | 21 | 324 | 8.0 | 14.5 | 0.00 | 0.00 | 0.00 | 24 | 1002.9 |
| 20260503210004 | 21 | 321 | 6.4 | 16.1 | 0.00 | 0.00 | 0.00 | 22 | 1003.0 |
| 20260503205403 | 21 | 331 | 6.4 | 20.9 | 0.00 | 0.00 | 0.00 | 23 | 1003.1 |
| 20260503204503 | 21 | 346 | 8.0 | 16.1 | 0.00 | 0.00 | 0.00 | 26 | 1003.2 |
| 20260503203603 | 21 | 351 | 8.0 | 19.3 | 0.00 | 0.00 | 0.00 | 22 | 1003.3 |
| 20260503202703 | 21 | 324 | 4.8 | 16.1 | 0.00 | 0.00 | 0.00 | 23 | 1003.4 |
| 20260503201803 | 21 | 298 | 6.4 | 11.3 | 0.00 | 0.00 | 0.00 | 23 | 1003.4 |
| 20260503200903 | 21 | 318 | 8.0 | 16.1 | 0.00 | 0.00 | 0.00 | 24 | 1003.5 |
| 20260503200003 | 20 | 357 | 8.0 | 14.5 | 0.00 | 0.00 | 0.00 | 25 | 1003.5 |
| 20260503195616 | 20 | 359 | 8.0 | 16.1 | 0.00 | 0.00 | 0.00 | 23 | 1003.6 |
| 20260503194504 | 20 | 357 | 11.3 | 19.3 | 0.00 | 0.00 | 0.00 | 24 | 1003.8 |
| 20260503193603 | 20 | 331 | 6.4 | 19.3 | 0.00 | 0.00 | 0.00 | 25 | 1003.8 |
| 20260503192703 | 20 | 332 | 8.0 | 14.5 | 0.00 | 0.00 | 0.00 | 27 | 1003.8 |
| 20260503191803 | 20 | 351 | 6.4 | 16.1 | 0.00 | 0.00 | 0.00 | 28 | 1003.7 |
| 20260503190903 | 20 | 6 | 6.4 | 19.3 | 0.00 | 0.00 | 0.00 | 30 | 1003.7 |
| 20260503190215 | 20 | 348 | 8.0 | 14.5 | 0.00 | 0.00 | 0.00 | 28 | 1003.9 |
| 20260503185616 | 20 | 354 | 9.7 | 25.7 | 0.00 | 0.00 | 0.00 | 27 | 1004.0 |
| 20260503184503 | 20 | 324 | 6.4 | 11.3 | 0.00 | 0.00 | 0.00 | 28 | 1003.8 |
| 20260503183603 | 20 | 319 | 4.8 | 16.1 | 0.00 | 0.00 | 0.00 | 28 | 1003.9 |
| 20260503182704 | 20 | 351 | 8.0 | 20.9 | 0.00 | 0.00 | 0.00 | 29 | 1004.0 |
| 20260503181803 | 20 | 3 | 9.7 | 20.9 | 0.00 | 0.00 | 0.00 | 27 | 1004.1 |
| 20260503180904 | 20 | 345 | 9.7 | 27.4 | 0.00 | 0.00 | 0.00 | 32 | 1004.2 |
| 20260503180004 | 20 | 311 | 8.0 | 19.3 | 0.00 | 0.00 | 0.00 | 28 | 1004.2 |
| 20260503175403 | 20 | 332 | 6.4 | 24.1 | 0.00 | 0.00 | 0.00 | 33 | 1004.4 |
| 20260503174503 | 19 | 342 | 8.0 | 19.3 | 0.00 | 0.00 | 0.00 | 35 | 1004.2 |
| 20260503173817 | 19 | 347 | 8.0 | 19.3 | 0.00 | 0.00 | 0.00 | 33 | 1004.2 |
| 20260503172703 | 18 | 338 | 8.0 | 19.3 | 0.00 | 0.00 | 0.00 | 32 | 1004.4 |
| 20260503172017 | 19 | 353 | 8.0 | 17.7 | 0.00 | 0.00 | 0.00 | 33 | 1004.5 |
| 20260503170904 | 19 | 299 | 8.0 | 17.7 | 0.00 | 0.00 | 0.00 | 35 | 1004.6 |